Погода в Гараньюнсе

Бразилия     8°53′26″S   36°29′47″W
темп.,
°C
ветер,
м/с
пор.,
м/с
влажн.,
%
обл.,
%
осадки,
мм/ч
давл.,
гПа
погр.,
м
27 февраля, сб
сб2700:00+20всв489537 0.0 1012373
03:00+19всв369834 0.0 1011255
06:00+19всв269622 0.0 1012252
09:00+26в455521 0.0 1013968
12:00+29вюв444454 0.0 10111605
15:00+27вюв665972 2.1 1008949
18:00+22вюв5108275 6.4 1010533
21:00+20в599371 9.9 1011507
28 февраля, вс
вс2800:00+20в489636 0.0 1011418
03:00+19вюв379833 0.0 1010416
06:00+20в369675 0.1 1011367
09:00+24в467168 0.1 1012850
12:00+29в454639 0.0 10101651
15:00+29вюв554443 0.0 10071971
18:00+23вюв6106942 0.1 1008699
21:00+20в599229 0.1 1011543
1 марта, пн
пн100:00+20в479447 0.1 1010420
03:00+19в279944 0.1 1009308
06:00+20в359463 0.1 1010386
09:00+25в466469 0.1 1011954
12:00+27вюв666393 1.7 1009985
15:00+25в787091 4.7 1007908
18:00+22в6108291 0.3 1009685
21:00+20в6109161 0.3 1011569
2 марта, вт
вт200:00+20в499750 0.1 1011519
03:00+19в269663 0.1 1010282
06:00+19вюв479646 0.1 1011447
09:00+24вюв466964 0.3 1013864
12:00+26вюв666566 2.3 10121030
15:00+26вюв676852 4.1 1009913
18:00+21вюв588654 0.0 1011606
21:00+20в489472 0.1 1013465
3 марта, ср
ср300:00+20в379729 0.0 1013385
03:00+19всв259737 0.0 1012241
06:00+19всв259627 0.0 1013216
09:00+26всв455916 0.0 1015915
12:00+30в44429 0.0 10131821
15:00+29в654930 0.2 10111430
18:00+22в6108518 2.1 1012538
21:00+21в6109437 2.3 1014476